Find Starlink 3230

NORAD ID: 50845 Int'l Des: 2022-001 Owner: SPXS Country: US Constellation: starlink operational
LEOCIRCULAR

Live Position

Loading 3D Globe...

About Starlink 3230

Description loading...

Upcoming Passes

Passes for default location (London). Set your location on the main map for personalized predictions.

Altitude History

Loading altitude history...

Two-Line Element Set

1 50845U 22001AU 26105.93608834 -.00000507 00000-0 -13736-4 0 9990
2 50845 53.2180 11.9156 0001602 88.6067 271.5109 15.08836518235897
Epoch: Apr 15, 2026 • Age: 6 hours

Current Status

Altitude 552.8 km
Velocity 7.58 km/s
Sub-Earth Point -37.67°S, 62.29°E
Launch Date Jan 6, 2022
Age 4.2 years
Type internet

Technical Details

Classification Payload
Mass 297.00 kg
Dry Mass 275.00 kg
Total Mass 297.00 kg
Length 0.20 m
Diameter 2.80 m
Span 9.00 m
Shape Box + pan
Manufacturer SPXS
Bus Type Starlink
Phase Status In Orbit
Owner/State SPXS/US

Most Searched